Time,TemperatureF,DewpointF,PressureIn,WindDirection,WindDirectionDegrees,WindSpeedMPH,WindSpeedGustMPH,Humidity,HourlyPrecipIn,Conditions,Clouds,dailyrainin,SoftwareType,DateUTC
2013-01-09 00:00:00,36.7,31.4,30.08,SSW,203,3.0,3.0,81,0.00,,,0.00,Wunderground v.1.15,2013-01-09 06:00:00,
2013-01-09 00:02:00,36.7,31.4,30.08,SSW,205,3.0,4.0,81,0.00,,,0.00,Wunderground v.1.15,2013-01-09 06:02:00,
2013-01-09 00:03:00,36.6,31.3,30.08,SSW,193,3.0,4.0,81,0.00,,,0.00,Wunderground v.1.15,2013-01-09 06:03:00,
2013-01-09 00:06:00,36.5,31.2,30.08,South,181,3.0,4.0,81,0.00,,,0.00,Wunderground v.1.15,2013-01-09 06:06:00,
2013-01-09 00:09:00,36.5,31.5,30.08,South,180,3.0,4.0,82,0.00,,,0.00,Wunderground v.1.15,2013-01-09 06:09:00,
2013-01-09 00:10:00,36.5,31.5,30.08,South,181,3.0,3.0,82,0.00,,,0.00,Wunderground v.1.15,2013-01-09 06:10:00,
2013-01-09 00:14:00,36.5,31.5,30.08,SE,145,3.0,5.0,82,0.00,,,0.00,Wunderground v.1.15,2013-01-09 06:14:00,
2013-01-09 00:15:00,36.5,31.5,30.08,South,172,4.0,5.0,82,0.00,,,0.00,Wunderground v.1.15,2013-01-09 06:15:00,
2013-01-09 00:17:00,36.6,31.6,30.08,South,188,4.0,5.0,82,0.00,,,0.00,Wunderground v.1.15,2013-01-09 06:17:00,
2013-01-09 00:19:00,36.7,31.7,30.08,SSE,166,4.0,5.0,82,0.00,,,0.00,Wunderground v.1.15,2013-01-09 06:19:00,
2013-01-09 00:21:00,36.7,31.7,30.08,South,184,4.0,4.0,82,0.00,,,0.00,Wunderground v.1.15,2013-01-09 06:21:00,
2013-01-09 00:23:00,36.8,31.8,30.08,SSW,203,4.0,4.0,82,0.00,,,0.00,Wunderground v.1.15,2013-01-09 06:23:00,
2013-01-09 00:24:00,36.8,31.8,30.08,SSW,197,4.0,5.0,82,0.00,,,0.00,Wunderground v.1.15,2013-01-09 06:24:00,
2013-01-09 00:25:00,36.8,31.8,30.08,South,191,4.0,5.0,82,0.00,,,0.00,Wunderground v.1.15,2013-01-09 06:25:00,
2013-01-09 00:29:00,37.0,32.0,30.08,SSW,208,4.0,5.0,82,0.00,,,0.00,Wunderground v.1.15,2013-01-09 06:29:00,
2013-01-09 00:30:00,37.0,32.0,30.08,SSW,200,4.0,5.0,82,0.00,,,0.00,Wunderground v.1.15,2013-01-09 06:30:00,
2013-01-09 00:32:00,37.1,31.8,30.08,SSW,211,3.0,5.0,81,0.00,,,0.00,Wunderground v.1.15,2013-01-09 06:32:00,
2013-01-09 00:37:00,37.1,31.8,30.08,SW,219,4.0,5.0,81,0.00,,,0.00,Wunderground v.1.15,2013-01-09 06:37:00,
2013-01-09 00:39:00,37.0,31.7,30.08,SW,224,3.0,5.0,81,0.00,,,0.00,Wunderground v.1.15,2013-01-09 06:39:00,
2013-01-09 00:40:00,36.9,31.6,30.09,SW,223,3.0,4.0,81,0.00,,,0.00,Wunderground v.1.15,2013-01-09 06:40:00,
2013-01-09 00:42:00,36.9,31.6,30.09,SW,226,3.0,8.0,81,0.00,,,0.00,Wunderground v.1.15,2013-01-09 06:42:00,
2013-01-09 00:44:00,37.3,32.0,30.09,WSW,243,4.0,9.0,81,0.00,,,0.00,Wunderground v.1.15,2013-01-09 06:44:00,
2013-01-09 00:47:00,38.6,32.6,30.09,WSW,243,5.0,11.0,79,0.00,,,0.00,Wunderground v.1.15,2013-01-09 06:47:00,
2013-01-09 00:50:00,40.0,32.7,30.09,SW,229,8.0,11.0,75,0.00,,,0.00,Wunderground v.1.15,2013-01-09 06:50:00,
2013-01-09 00:51:00,40.3,33.0,30.09,WSW,249,8.0,13.0,75,0.00,,,0.00,Wunderground v.1.15,2013-01-09 06:51:00,
2013-01-09 00:52:00,40.5,32.9,30.08,SW,229,9.0,13.0,74,0.00,,,0.00,Wunderground v.1.15,2013-01-09 06:52:00,
2013-01-09 00:54:00,40.8,32.8,30.09,SW,232,10.0,13.0,73,0.00,,,0.00,Wunderground v.1.15,2013-01-09 06:54:00,
2013-01-09 00:56:00,40.9,32.9,30.09,SW,227,10.0,13.0,73,0.00,,,0.00,Wunderground v.1.15,2013-01-09 06:56:00,
2013-01-09 00:59:00,41.2,32.9,30.09,SW,235,10.0,13.0,72,0.00,,,0.00,Wunderground v.1.15,2013-01-09 06:59:00,
2013-01-09 01:01:00,41.4,33.0,30.09,WSW,245,10.0,11.0,72,0.00,,,0.00,Wunderground v.1.15,2013-01-09 07:01:00,
2013-01-09 01:05:00,41.4,33.0,30.09,SW,223,10.0,11.0,72,0.00,,,0.00,Wunderground v.1.15,2013-01-09 07:05:00,
2013-01-09 01:06:00,41.4,32.7,30.09,WSW,240,10.0,11.0,71,0.00,,,0.00,Wunderground v.1.15,2013-01-09 07:06:00,
2013-01-09 01:08:00,41.6,32.9,30.09,WSW,245,11.0,12.0,71,0.00,,,0.00,Wunderground v.1.15,2013-01-09 07:08:00,
2013-01-09 01:10:00,41.6,32.9,30.09,SW,231,10.0,10.0,71,0.00,,,0.00,Wunderground v.1.15,2013-01-09 07:10:00,
2013-01-09 01:11:00,41.6,32.9,30.09,WSW,245,10.0,10.0,71,0.00,,,0.00,Wunderground v.1.15,2013-01-09 07:11:00,
2013-01-09 01:12:00,41.6,32.9,30.09,WSW,245,10.0,12.0,71,0.00,,,0.00,Wunderground v.1.15,2013-01-09 07:12:00,
2013-01-09 01:15:00,41.5,32.8,30.10,WSW,238,10.0,12.0,71,0.00,,,0.00,Wunderground v.1.15,2013-01-09 07:15:00,
2013-01-09 01:16:00,41.5,32.8,30.10,WSW,250,10.0,12.0,71,0.00,,,0.00,Wunderground v.1.15,2013-01-09 07:16:00,
2013-01-09 01:19:00,41.3,33.0,30.10,WSW,239,9.0,12.0,72,0.00,,,0.00,Wunderground v.1.15,2013-01-09 07:19:00,
2013-01-09 01:21:00,41.1,32.8,30.11,SW,236,9.0,11.0,72,0.00,,,0.00,Wunderground v.1.15,2013-01-09 07:21:00,
2013-01-09 01:25:00,41.0,32.7,30.11,SW,236,8.0,11.0,72,0.00,,,0.00,Wunderground v.1.15,2013-01-09 07:25:00,
2013-01-09 01:27:00,41.1,32.8,30.11,SW,235,8.0,11.0,72,0.00,,,0.00,Wunderground v.1.15,2013-01-09 07:27:00,
2013-01-09 01:29:00,40.9,32.6,30.11,WSW,245,7.0,11.0,72,0.00,,,0.00,Wunderground v.1.15,2013-01-09 07:29:00,
2013-01-09 01:30:00,41.0,32.7,30.11,WSW,255,7.0,7.0,72,0.00,,,0.00,Wunderground v.1.15,2013-01-09 07:30:00,
2013-01-09 01:33:00,41.2,32.9,30.11,WSW,251,8.0,12.0,72,0.00,,,0.00,Wunderground v.1.15,2013-01-09 07:33:00,
2013-01-09 01:35:00,41.3,33.0,30.11,WSW,248,8.0,12.0,72,0.00,,,0.00,Wunderground v.1.15,2013-01-09 07:35:00,
2013-01-09 01:36:00,41.3,33.0,30.11,WSW,256,8.0,12.0,72,0.00,,,0.00,Wunderground v.1.15,2013-01-09 07:36:00,
2013-01-09 01:40:00,41.5,33.1,30.12,West,260,9.0,14.0,72,0.00,,,0.00,Wunderground v.1.15,2013-01-09 07:40:00,
2013-01-09 01:42:00,41.6,33.2,30.12,WSW,243,10.0,14.0,72,0.00,,,0.00,Wunderground v.1.15,2013-01-09 07:42:00,
2013-01-09 01:44:00,41.5,33.1,30.12,West,262,10.0,14.0,72,0.00,,,0.00,Wunderground v.1.15,2013-01-09 07:44:00,
2013-01-09 01:48:00,41.3,33.3,30.11,West,263,10.0,14.0,73,0.00,,,0.00,Wunderground v.1.15,2013-01-09 07:48:00,
2013-01-09 01:49:00,41.3,33.3,30.11,WSW,252,10.0,14.0,73,0.00,,,0.00,Wunderground v.1.15,2013-01-09 07:49:00,
2013-01-09 01:51:00,41.2,33.2,30.12,West,259,9.0,10.0,73,0.00,,,0.00,Wunderground v.1.15,2013-01-09 07:51:00,
2013-01-09 01:55:00,41.3,33.3,30.12,WSW,256,9.0,13.0,73,0.00,,,0.00,Wunderground v.1.15,2013-01-09 07:55:00,
2013-01-09 01:58:00,41.3,33.3,30.12,West,262,10.0,13.0,73,0.00,,,0.00,Wunderground v.1.15,2013-01-09 07:58:00,
2013-01-09 02:00:00,41.2,33.5,30.13,WSW,255,10.0,10.0,74,0.00,,,0.00,Wunderground v.1.15,2013-01-09 08:00:00,
2013-01-09 02:02:00,41.2,33.5,30.13,WSW,248,10.0,12.0,74,0.00,,,0.00,Wunderground v.1.15,2013-01-09 08:02:00,
2013-01-09 02:03:00,41.2,33.5,30.13,West,266,10.0,13.0,74,0.00,,,0.00,Wunderground v.1.15,2013-01-09 08:03:00,
2013-01-09 02:04:00,41.2,33.5,30.13,WSW,250,10.0,13.0,74,0.00,,,0.00,Wunderground v.1.15,2013-01-09 08:04:00,
2013-01-09 02:05:00,41.1,33.4,30.13,WSW,250,11.0,13.0,74,0.00,,,0.00,Wunderground v.1.15,2013-01-09 08:05:00,
2013-01-09 02:09:00,41.0,33.3,30.13,WSW,250,11.0,11.0,74,0.00,,,0.00,Wunderground v.1.15,2013-01-09 08:09:00,
2013-01-09 02:10:00,41.0,33.3,30.13,West,262,10.0,13.0,74,0.00,,,0.00,Wunderground v.1.15,2013-01-09 08:10:00,
2013-01-09 02:13:00,41.1,33.4,30.13,WSW,248,11.0,14.0,74,0.00,,,0.00,Wunderground v.1.15,2013-01-09 08:13:00,
2013-01-09 02:14:00,41.0,33.7,30.13,West,262,11.0,15.0,75,0.00,,,0.00,Wunderground v.1.15,2013-01-09 08:14:00,
2013-01-09 02:15:00,41.1,33.8,30.14,WSW,254,11.0,15.0,75,0.00,,,0.00,Wunderground v.1.15,2013-01-09 08:15:00,
2013-01-09 02:19:00,40.9,33.6,30.13,West,266,10.0,10.0,75,0.00,,,0.00,Wunderground v.1.15,2013-01-09 08:19:00,
2013-01-09 02:21:00,40.8,33.5,30.13,West,264,10.0,10.0,75,0.00,,,0.00,Wunderground v.1.15,2013-01-09 08:21:00,
2013-01-09 02:26:00,40.6,33.6,30.14,West,264,9.0,10.0,76,0.00,,,0.00,Wunderground v.1.15,2013-01-09 08:26:00,
2013-01-09 02:28:00,40.5,33.5,30.14,West,262,10.0,10.0,76,0.00,,,0.00,Wunderground v.1.15,2013-01-09 08:28:00,
2013-01-09 02:31:00,40.4,33.4,30.14,WSW,249,9.0,12.0,76,0.00,,,0.00,Wunderground v.1.15,2013-01-09 08:31:00,
2013-01-09 02:32:00,40.4,33.4,30.14,West,262,9.0,12.0,76,0.00,,,0.00,Wunderground v.1.15,2013-01-09 08:32:00,
2013-01-09 02:34:00,40.4,33.4,30.14,West,270,9.0,12.0,76,0.00,,,0.00,Wunderground v.1.15,2013-01-09 08:34:00,
2013-01-09 02:36:00,40.3,33.3,30.14,WSW,257,9.0,12.0,76,0.00,,,0.00,Wunderground v.1.15,2013-01-09 08:36:00,
2013-01-09 02:38:00,40.3,33.3,30.14,West,262,9.0,12.0,76,0.00,,,0.00,Wunderground v.1.15,2013-01-09 08:38:00,
2013-01-09 02:40:00,40.1,33.1,30.15,WSW,255,8.0,10.0,76,0.00,,,0.00,Wunderground v.1.15,2013-01-09 08:40:00,
2013-01-09 02:41:00,40.1,33.5,30.15,WSW,257,8.0,10.0,77,0.00,,,0.00,Wunderground v.1.15,2013-01-09 08:41:00,
2013-01-09 02:46:00,39.8,33.2,30.15,WSW,255,8.0,11.0,77,0.00,,,0.00,Wunderground v.1.15,2013-01-09 08:46:00,
2013-01-09 02:49:00,39.6,33.3,30.15,West,260,8.0,11.0,78,0.00,,,0.00,Wunderground v.1.15,2013-01-09 08:49:00,
2013-01-09 02:50:00,39.5,33.2,30.15,West,276,8.0,8.0,78,0.00,,,0.00,Wunderground v.1.15,2013-01-09 08:50:00,
2013-01-09 02:54:00,39.3,33.0,30.15,WNW,287,7.0,11.0,78,0.00,,,0.00,Wunderground v.1.15,2013-01-09 08:54:00,
2013-01-09 02:58:00,39.2,33.2,30.15,WSW,252,7.0,11.0,79,0.00,,,0.00,Wunderground v.1.15,2013-01-09 08:58:00,
2013-01-09 02:59:00,39.2,33.2,30.15,West,264,7.0,11.0,79,0.00,,,0.00,Wunderground v.1.15,2013-01-09 08:59:00,
2013-01-09 03:00:00,39.2,33.2,30.15,West,269,7.0,7.0,79,0.00,,,0.00,Wunderground v.1.15,2013-01-09 09:00:00,
2013-01-09 03:03:00,39.1,33.1,30.16,West,263,8.0,9.0,79,0.00,,,0.00,Wunderground v.1.15,2013-01-09 09:03:00,
2013-01-09 03:04:00,39.1,33.1,30.15,West,277,8.0,12.0,79,0.00,,,0.00,Wunderground v.1.15,2013-01-09 09:04:00,
2013-01-09 03:06:00,39.1,33.1,30.16,WSW,258,8.0,12.0,79,0.00,,,0.00,Wunderground v.1.15,2013-01-09 09:06:00,
2013-01-09 03:07:00,39.1,33.1,30.16,WSW,248,9.0,12.0,79,0.00,,,0.00,Wunderground v.1.15,2013-01-09 09:07:00,
2013-01-09 03:08:00,39.1,33.1,30.16,West,262,9.0,12.0,79,0.00,,,0.00,Wunderground v.1.15,2013-01-09 09:08:00,
2013-01-09 03:11:00,38.9,32.9,30.15,WSW,253,9.0,10.0,79,0.00,,,0.00,Wunderground v.1.15,2013-01-09 09:11:00,
2013-01-09 03:13:00,38.9,33.3,30.16,WSW,253,9.0,11.0,80,0.00,,,0.00,Wunderground v.1.15,2013-01-09 09:13:00,
2013-01-09 03:14:00,39.0,33.4,30.16,West,262,10.0,11.0,80,0.00,,,0.00,Wunderground v.1.15,2013-01-09 09:14:00,
2013-01-09 03:17:00,38.9,33.3,30.16,WNW,291,9.0,11.0,80,0.00,,,0.00,Wunderground v.1.15,2013-01-09 09:17:00,
2013-01-09 03:19:00,38.8,33.2,30.16,West,264,9.0,11.0,80,0.00,,,0.00,Wunderground v.1.15,2013-01-09 09:19:00,
2013-01-09 03:20:00,38.8,33.2,30.16,West,260,8.0,8.0,80,0.00,,,0.00,Wunderground v.1.15,2013-01-09 09:20:00,
2013-01-09 03:23:00,38.7,33.1,30.16,WSW,253,8.0,9.0,80,0.00,,,0.00,Wunderground v.1.15,2013-01-09 09:23:00,
2013-01-09 08:42:00,35.1,31.9,30.31,WSW,256,5.0,11.0,88,0.00,,,0.00,Wunderground v.1.15,2013-01-09 14:42:00,
2013-01-09 08:44:00,35.3,31.8,30.32,West,263,5.0,11.0,87,0.00,,,0.00,Wunderground v.1.15,2013-01-09 14:44:00,
2013-01-09 08:47:00,35.4,31.9,30.32,West,259,6.0,11.0,87,0.00,,,0.00,Wunderground v.1.15,2013-01-09 14:47:00,
2013-01-09 08:49:00,35.6,32.1,30.31,West,267,6.0,11.0,87,0.00,,,0.00,Wunderground v.1.15,2013-01-09 14:49:00,
2013-01-09 08:53:00,35.9,32.1,30.31,WSW,243,5.0,11.0,86,0.00,,,0.00,Wunderground v.1.15,2013-01-09 14:53:00,
2013-01-09 08:54:00,35.9,32.1,30.31,WSW,255,5.0,11.0,86,0.00,,,0.00,Wunderground v.1.15,2013-01-09 14:54:00,
2013-01-09 09:00:00,36.4,32.3,30.32,WSW,254,5.0,5.0,85,0.00,,,0.00,Wunderground v.1.15,2013-01-09 15:00:00,
2013-01-09 09:02:00,36.6,32.5,30.32,WSW,253,5.0,7.0,85,0.00,,,0.00,Wunderground v.1.15,2013-01-09 15:02:00,
2013-01-09 09:03:00,36.6,32.5,30.32,WSW,249,5.0,7.0,85,0.00,,,0.00,Wunderground v.1.15,2013-01-09 15:03:00,
2013-01-09 09:08:00,37.1,33.0,30.32,WSW,240,6.0,7.0,85,0.00,,,0.00,Wunderground v.1.15,2013-01-09 15:08:00,
2013-01-09 09:09:00,37.1,32.7,30.33,WSW,246,6.0,7.0,84,0.00,,,0.00,Wunderground v.1.15,2013-01-09 15:09:00,
2013-01-09 09:10:00,37.2,32.8,30.33,SW,232,6.0,6.0,84,0.00,,,0.00,Wunderground v.1.15,2013-01-09 15:10:00,
2013-01-09 09:12:00,37.4,33.0,30.33,WSW,256,6.0,7.0,84,0.00,,,0.00,Wunderground v.1.15,2013-01-09 15:12:00,
2013-01-09 09:14:00,37.6,32.9,30.33,West,259,6.0,7.0,83,0.00,,,0.00,Wunderground v.1.15,2013-01-09 15:14:00,
2013-01-09 09:15:00,37.6,32.9,30.33,WSW,252,6.0,7.0,83,0.00,,,0.00,Wunderground v.1.15,2013-01-09 15:15:00,
2013-01-09 09:17:00,37.7,33.0,30.33,West,262,6.0,7.0,83,0.00,,,0.00,Wunderground v.1.15,2013-01-09 15:17:00,
2013-01-09 09:19:00,38.0,33.3,30.33,WNW,285,6.0,7.0,83,0.00,,,0.00,Wunderground v.1.15,2013-01-09 15:19:00,
2013-01-09 09:22:00,38.3,33.3,30.33,West,262,6.0,6.0,82,0.00,,,0.00,Wunderground v.1.15,2013-01-09 15:22:00,
2013-01-09 09:24:00,38.5,33.5,30.33,WSW,248,6.0,6.0,82,0.00,,,0.00,Wunderground v.1.15,2013-01-09 15:24:00,
2013-01-09 09:25:00,38.6,33.3,30.33,West,266,5.0,7.0,81,0.00,,,0.00,Wunderground v.1.15,2013-01-09 15:25:00,
2013-01-09 09:27:00,38.7,33.4,30.33,WSW,256,6.0,10.0,81,0.00,,,0.00,Wunderground v.1.15,2013-01-09 15:27:00,
2013-01-09 09:29:00,38.8,33.5,30.34,WSW,250,6.0,10.0,81,0.00,,,0.00,Wunderground v.1.15,2013-01-09 15:29:00,
2013-01-09 09:30:00,38.9,33.6,30.34,West,264,6.0,11.0,81,0.00,,,0.00,Wunderground v.1.15,2013-01-09 15:30:00,
2013-01-09 09:32:00,38.9,33.6,30.34,West,264,7.0,11.0,81,0.00,,,0.00,Wunderground v.1.15,2013-01-09 15:32:00,
2013-01-09 09:35:00,39.0,33.7,30.34,West,270,6.0,11.0,81,0.00,,,0.00,Wunderground v.1.15,2013-01-09 15:35:00,
2013-01-09 09:36:00,39.1,33.8,30.34,West,264,6.0,11.0,81,0.00,,,0.00,Wunderground v.1.15,2013-01-09 15:36:00,
2013-01-09 09:37:00,39.1,33.8,30.34,WSW,252,6.0,11.0,81,0.00,,,0.00,Wunderground v.1.15,2013-01-09 15:37:00,
2013-01-09 09:40:00,39.2,33.5,30.34,West,277,6.0,6.0,80,0.00,,,0.00,Wunderground v.1.15,2013-01-09 15:40:00,
2013-01-09 09:41:00,39.2,33.9,30.34,WSW,255,5.0,6.0,81,0.00,,,0.00,Wunderground v.1.15,2013-01-09 15:41:00,
2013-01-09 09:42:00,39.2,33.9,30.34,West,262,5.0,6.0,81,0.00,,,0.00,Wunderground v.1.15,2013-01-09 15:42:00,
2013-01-09 09:45:00,39.2,33.9,30.34,West,281,5.0,8.0,81,0.00,,,0.00,Wunderground v.1.15,2013-01-09 15:45:00,
2013-01-09 09:46:00,39.3,33.6,30.34,West,278,6.0,8.0,80,0.00,,,0.00,Wunderground v.1.15,2013-01-09 15:46:00,
2013-01-09 09:48:00,39.3,33.6,30.34,West,270,6.0,8.0,80,0.00,,,0.00,Wunderground v.1.15,2013-01-09 15:48:00,
2013-01-09 09:51:00,39.4,34.1,30.34,WNW,297,5.0,6.0,81,0.00,,,0.00,Wunderground v.1.15,2013-01-09 15:51:00,
2013-01-09 09:53:00,39.5,34.2,30.34,West,276,5.0,6.0,81,0.00,,,0.00,Wunderground v.1.15,2013-01-09 15:53:00,
2013-01-09 09:55:00,39.6,34.2,30.34,West,278,5.0,6.0,81,0.00,,,0.00,Wunderground v.1.15,2013-01-09 15:55:00,
2013-01-09 09:56:00,39.7,34.3,30.34,West,278,5.0,6.0,81,0.00,,,0.00,Wunderground v.1.15,2013-01-09 15:56:00,
2013-01-09 10:00:00,39.9,34.5,30.34,West,278,4.0,6.0,81,0.00,,,0.00,Wunderground v.1.15,2013-01-09 16:00:00,
2013-01-09 10:02:00,40.0,34.3,30.34,WNW,293,4.0,6.0,80,0.00,,,0.00,Wunderground v.1.15,2013-01-09 16:02:00,
2013-01-09 10:03:00,40.0,34.3,30.34,WSW,256,4.0,6.0,80,0.00,,,0.00,Wunderground v.1.15,2013-01-09 16:03:00,
2013-01-09 10:04:00,40.0,34.3,30.34,West,264,5.0,6.0,80,0.00,,,0.00,Wunderground v.1.15,2013-01-09 16:04:00,
2013-01-09 10:06:00,40.1,34.4,30.35,WNW,287,5.0,6.0,80,0.00,,,0.00,Wunderground v.1.15,2013-01-09 16:06:00,
2013-01-09 10:08:00,40.2,34.5,30.35,West,267,5.0,7.0,80,0.00,,,0.00,Wunderground v.1.15,2013-01-09 16:08:00,
2013-01-09 10:11:00,40.3,34.6,30.35,West,263,5.0,11.0,80,0.00,,,0.00,Wunderground v.1.15,2013-01-09 16:11:00,
2013-01-09 10:12:00,40.3,34.3,30.35,West,259,6.0,11.0,79,0.00,,,0.00,Wunderground v.1.15,2013-01-09 16:12:00,
2013-01-09 10:15:00,40.4,34.4,30.35,West,269,6.0,11.0,79,0.00,,,0.00,Wunderground v.1.15,2013-01-09 16:15:00,
2013-01-09 10:16:00,40.4,34.7,30.35,WNW,286,7.0,11.0,80,0.00,,,0.00,Wunderground v.1.15,2013-01-09 16:16:00,
2013-01-09 10:17:00,40.4,34.7,30.36,West,276,7.0,11.0,80,0.00,,,0.00,Wunderground v.1.15,2013-01-09 16:17:00,
2013-01-09 10:20:00,40.6,34.9,30.35,WNW,285,7.0,7.0,80,0.00,,,0.00,Wunderground v.1.15,2013-01-09 16:20:00,
2013-01-09 10:22:00,40.6,34.9,30.35,West,259,7.0,10.0,80,0.00,,,0.00,Wunderground v.1.15,2013-01-09 16:22:00,
2013-01-09 10:23:00,40.7,35.0,30.35,West,267,7.0,12.0,80,0.00,,,0.00,Wunderground v.1.15,2013-01-09 16:23:00,
2013-01-09 10:24:00,40.7,35.0,30.35,WSW,255,7.0,12.0,80,0.00,,,0.00,Wunderground v.1.15,2013-01-09 16:24:00,
2013-01-09 10:25:00,40.8,35.1,30.35,West,269,7.0,12.0,80,0.00,,,0.00,Wunderground v.1.15,2013-01-09 16:25:00,
2013-01-09 10:27:00,40.8,35.1,30.35,West,266,8.0,12.0,80,0.00,,,0.00,Wunderground v.1.15,2013-01-09 16:27:00,
2013-01-09 10:29:00,41.0,35.3,30.35,West,264,8.0,12.0,80,0.00,,,0.00,Wunderground v.1.15,2013-01-09 16:29:00,
2013-01-09 10:30:00,41.1,35.4,30.35,WSW,255,8.0,8.0,80,0.00,,,0.00,Wunderground v.1.15,2013-01-09 16:30:00,
2013-01-09 10:32:00,41.3,35.3,30.35,WNW,295,7.0,8.0,79,0.00,,,0.00,Wunderground v.1.15,2013-01-09 16:32:00,
2013-01-09 10:34:00,41.3,35.3,30.35,NNW,335,7.0,8.0,79,0.00,,,0.00,Wunderground v.1.15,2013-01-09 16:34:00,
2013-01-09 10:35:00,41.3,35.3,30.35,West,281,7.0,8.0,79,0.00,,,0.00,Wunderground v.1.15,2013-01-09 16:35:00,
2013-01-09 10:37:00,41.4,35.4,30.35,West,259,5.0,8.0,79,0.00,,,0.00,Wunderground v.1.15,2013-01-09 16:37:00,
2013-01-09 10:40:00,41.6,35.6,30.36,West,278,5.0,5.0,79,0.00,,,0.00,Wunderground v.1.15,2013-01-09 16:40:00,
2013-01-09 10:41:00,41.6,35.6,30.36,West,260,5.0,7.0,79,0.00,,,0.00,Wunderground v.1.15,2013-01-09 16:41:00,
2013-01-09 10:45:00,41.8,35.8,30.36,West,276,4.0,7.0,79,0.00,,,0.00,Wunderground v.1.15,2013-01-09 16:45:00,
2013-01-09 10:46:00,41.8,35.8,30.37,West,262,4.0,7.0,79,0.00,,,0.00,Wunderground v.1.15,2013-01-09 16:46:00,
2013-01-09 10:47:00,41.7,35.7,30.36,West,264,5.0,7.0,79,0.00,,,0.00,Wunderground v.1.15,2013-01-09 16:47:00,
2013-01-09 10:49:00,41.7,35.3,30.37,WNW,289,5.0,7.0,78,0.00,,,0.00,Wunderground v.1.15,2013-01-09 16:49:00,
2013-01-09 10:50:00,41.7,35.7,30.37,WNW,290,5.0,5.0,79,0.00,,,0.00,Wunderground v.1.15,2013-01-09 16:50:00,
2013-01-09 10:51:00,41.7,35.7,30.37,West,273,5.0,5.0,79,0.00,,,0.00,Wunderground v.1.15,2013-01-09 16:51:00,
2013-01-09 10:55:00,41.8,35.8,30.37,West,281,5.0,11.0,79,0.00,,,0.00,Wunderground v.1.15,2013-01-09 16:55:00,
2013-01-09 10:56:00,41.8,35.8,30.37,West,271,5.0,11.0,79,0.00,,,0.00,Wunderground v.1.15,2013-01-09 16:56:00,
2013-01-09 11:01:00,42.1,36.1,30.37,SW,236,4.0,8.0,79,0.00,,,0.00,Wunderground v.1.15,2013-01-09 17:01:00,
2013-01-09 11:04:00,42.3,36.3,30.37,WNW,302,4.0,8.0,79,0.00,,,0.00,Wunderground v.1.15,2013-01-09 17:04:00,
2013-01-09 11:06:00,42.7,36.6,30.37,West,263,4.0,8.0,79,0.00,,,0.00,Wunderground v.1.15,2013-01-09 17:06:00,
2013-01-09 11:08:00,42.8,36.7,30.37,SW,217,4.0,8.0,79,0.00,,,0.00,Wunderground v.1.15,2013-01-09 17:08:00,
2013-01-09 11:10:00,43.0,36.6,30.37,WSW,244,5.0,6.0,78,0.00,,,0.00,Wunderground v.1.15,2013-01-09 17:10:00,
2013-01-09 11:11:00,43.1,36.7,30.37,WSW,253,4.0,7.0,78,0.00,,,0.00,Wunderground v.1.15,2013-01-09 17:11:00,
2013-01-09 11:13:00,43.1,36.7,30.38,WSW,243,5.0,7.0,78,0.00,,,0.00,Wunderground v.1.15,2013-01-09 17:13:00,
2013-01-09 11:17:00,43.4,36.7,30.38,West,280,4.0,7.0,77,0.00,,,0.00,Wunderground v.1.15,2013-01-09 17:17:00,
2013-01-09 11:18:00,43.5,36.8,30.38,WNW,284,4.0,7.0,77,0.00,,,0.00,Wunderground v.1.15,2013-01-09 17:18:00,
2013-01-09 11:20:00,43.7,37.0,30.38,WNW,284,4.0,4.0,77,0.00,,,0.00,Wunderground v.1.15,2013-01-09 17:20:00,
2013-01-09 11:23:00,43.9,36.8,30.37,WNW,291,4.0,6.0,76,0.00,,,0.00,Wunderground v.1.15,2013-01-09 17:23:00,
2013-01-09 11:25:00,44.1,37.3,30.37,West,277,3.0,6.0,77,0.00,,,0.00,Wunderground v.1.15,2013-01-09 17:25:00,
2013-01-09 11:29:00,44.3,37.2,30.37,WNW,290,3.0,8.0,76,0.00,,,0.00,Wunderground v.1.15,2013-01-09 17:29:00,
2013-01-09 11:31:00,44.4,37.0,30.37,West,259,3.0,3.0,75,0.00,,,0.00,Wunderground v.1.15,2013-01-09 17:31:00,
2013-01-09 11:32:00,44.4,36.6,30.37,WNW,293,3.0,3.0,74,0.00,,,0.00,Wunderground v.1.15,2013-01-09 17:32:00,
2013-01-09 11:34:00,44.5,37.1,30.37,West,278,2.0,4.0,75,0.00,,,0.00,Wunderground v.1.15,2013-01-09 17:34:00,
2013-01-09 11:37:00,44.6,36.8,30.36,WNW,284,2.0,6.0,74,0.00,,,0.00,Wunderground v.1.15,2013-01-09 17:37:00,
2013-01-09 11:39:00,44.7,36.9,30.36,WSW,250,2.0,6.0,74,0.00,,,0.00,Wunderground v.1.15,2013-01-09 17:39:00,
2013-01-09 11:42:00,44.8,37.0,30.36,WNW,289,3.0,4.0,74,0.00,,,0.00,Wunderground v.1.15,2013-01-09 17:42:00,
2013-01-09 11:44:00,44.9,36.8,30.37,WNW,287,2.0,4.0,73,0.00,,,0.00,Wunderground v.1.15,2013-01-09 17:44:00,
2013-01-09 11:45:00,45.0,36.9,30.36,WNW,297,2.0,4.0,73,0.00,,,0.00,Wunderground v.1.15,2013-01-09 17:45:00,
2013-01-09 11:50:00,45.3,36.8,30.37,West,270,2.0,4.0,72,0.00,,,0.00,Wunderground v.1.15,2013-01-09 17:50:00,
2013-01-09 11:51:00,45.3,36.4,30.37,WNW,300,2.0,6.0,71,0.00,,,0.00,Wunderground v.1.15,2013-01-09 17:51:00,
2013-01-09 11:54:00,45.5,37.0,30.37,WNW,282,2.0,6.0,72,0.00,,,0.00,Wunderground v.1.15,2013-01-09 17:54:00,
2013-01-09 11:56:00,45.8,36.9,30.37,WNW,293,2.0,6.0,71,0.00,,,0.00,Wunderground v.1.15,2013-01-09 17:56:00,
2013-01-09 11:57:00,45.9,37.0,30.37,West,270,2.0,6.0,71,0.00,,,0.00,Wunderground v.1.15,2013-01-09 17:57:00,
2013-01-09 12:00:00,46.3,36.7,30.37,West,280,2.0,6.0,69,0.00,,,0.00,Wunderground v.1.15,2013-01-09 18:00:00,
2013-01-09 12:04:00,46.5,36.5,30.36,WNW,287,2.0,6.0,68,0.00,,,0.00,Wunderground v.1.15,2013-01-09 18:04:00,
2013-01-09 12:06:00,46.7,36.7,30.36,WNW,288,3.0,6.0,68,0.00,,,0.00,Wunderground v.1.15,2013-01-09 18:06:00,
2013-01-09 12:07:00,46.7,36.7,30.36,West,259,3.0,6.0,68,0.00,,,0.00,Wunderground v.1.15,2013-01-09 18:07:00,
2013-01-09 12:09:00,46.7,35.9,30.37,WNW,295,3.0,6.0,66,0.00,,,0.00,Wunderground v.1.15,2013-01-09 18:09:00,
2013-01-09 12:10:00,46.8,36.4,30.37,WNW,285,3.0,3.0,67,0.00,,,0.00,Wunderground v.1.15,2013-01-09 18:10:00,
2013-01-09 12:13:00,47.1,36.7,30.36,West,270,3.0,3.0,67,0.00,,,0.00,Wunderground v.1.15,2013-01-09 18:13:00,
2013-01-09 12:14:00,47.2,36.4,30.36,NW,312,3.0,3.0,66,0.00,,,0.00,Wunderground v.1.15,2013-01-09 18:14:00,
2013-01-09 12:15:00,47.3,36.9,30.36,WNW,293,3.0,3.0,67,0.00,,,0.00,Wunderground v.1.15,2013-01-09 18:15:00,
2013-01-09 12:17:00,47.5,36.3,30.36,West,270,3.0,5.0,65,0.00,,,0.00,Wunderground v.1.15,2013-01-09 18:17:00,
2013-01-09 12:18:00,47.5,35.9,30.36,West,266,3.0,5.0,64,0.00,,,0.00,Wunderground v.1.15,2013-01-09 18:18:00,
2013-01-09 12:19:00,47.5,35.9,30.36,WNW,288,3.0,5.0,64,0.00,,,0.00,Wunderground v.1.15,2013-01-09 18:19:00,
2013-01-09 12:23:00,47.5,35.5,30.37,West,281,3.0,5.0,63,0.00,,,0.00,Wunderground v.1.15,2013-01-09 18:23:00,
2013-01-09 12:24:00,47.5,35.5,30.37,West,266,3.0,5.0,63,0.00,,,0.00,Wunderground v.1.15,2013-01-09 18:24:00,
2013-01-09 12:26:00,47.5,35.1,30.37,WNW,290,3.0,7.0,62,0.00,,,0.00,Wunderground v.1.15,2013-01-09 18:26:00,
2013-01-09 12:28:00,47.5,35.5,30.37,West,281,3.0,7.0,63,0.00,,,0.00,Wunderground v.1.15,2013-01-09 18:28:00,
2013-01-09 12:29:00,47.6,36.0,30.36,WNW,286,3.0,7.0,64,0.00,,,0.00,Wunderground v.1.15,2013-01-09 18:29:00,
2013-01-09 12:32:00,47.7,35.3,30.36,WNW,293,3.0,3.0,62,0.00,,,0.00,Wunderground v.1.15,2013-01-09 18:32:00,
2013-01-09 12:34:00,47.7,35.3,30.36,NW,319,2.0,3.0,62,0.00,,,0.00,Wunderground v.1.15,2013-01-09 18:34:00,
2013-01-09 12:35:00,47.8,35.4,30.36,West,278,2.0,5.0,62,0.00,,,0.00,Wunderground v.1.15,2013-01-09 18:35:00,
2013-01-09 12:38:00,47.9,35.1,30.36,WNW,283,2.0,5.0,61,0.00,,,0.00,Wunderground v.1.15,2013-01-09 18:38:00,
2013-01-09 12:39:00,47.9,35.1,30.36,WNW,286,2.0,5.0,61,0.00,,,0.00,Wunderground v.1.15,2013-01-09 18:39:00,
2013-01-09 12:40:00,48.0,35.2,30.36,West,281,2.0,2.0,61,0.00,,,0.00,Wunderground v.1.15,2013-01-09 18:40:00,
2013-01-09 12:42:00,48.1,35.7,30.36,NW,305,2.0,3.0,62,0.00,,,0.00,Wunderground v.1.15,2013-01-09 18:42:00,
2013-01-09 12:44:00,48.2,34.5,30.36,NW,315,2.0,5.0,59,0.00,,,0.00,Wunderground v.1.15,2013-01-09 18:44:00,
2013-01-09 12:46:00,48.3,34.2,30.36,WNW,297,2.0,5.0,58,0.00,,,0.00,Wunderground v.1.15,2013-01-09 18:46:00,
2013-01-09 12:47:00,48.4,35.1,30.36,West,271,2.0,5.0,60,0.00,,,0.00,Wunderground v.1.15,2013-01-09 18:47:00,
2013-01-09 12:48:00,48.4,34.3,30.36,WNW,285,2.0,5.0,58,0.00,,,0.00,Wunderground v.1.15,2013-01-09 18:48:00,
2013-01-09 12:49:00,48.5,34.4,30.36,WNW,300,2.0,5.0,58,0.00,,,0.00,Wunderground v.1.15,2013-01-09 18:49:00,
2013-01-09 12:51:00,48.6,35.3,30.36,WNW,302,2.0,2.0,60,0.00,,,0.00,Wunderground v.1.15,2013-01-09 18:51:00,
2013-01-09 12:52:00,48.7,34.6,30.36,WNW,284,2.0,2.0,58,0.00,,,0.00,Wunderground v.1.15,2013-01-09 18:52:00,
2013-01-09 12:55:00,49.1,35.4,30.36,WNW,302,1.0,2.0,59,0.00,,,0.00,Wunderground v.1.15,2013-01-09 18:55:00,
2013-01-09 12:57:00,49.2,34.6,30.36,NW,305,1.0,3.0,57,0.00,,,0.00,Wunderground v.1.15,2013-01-09 18:57:00,
2013-01-09 13:00:00,49.1,34.9,30.36,NNW,330,1.0,1.0,58,0.00,,,0.00,Wunderground v.1.15,2013-01-09 19:00:00,
2013-01-09 13:01:00,49.1,34.9,30.36,NNW,332,1.0,1.0,58,0.00,,,0.00,Wunderground v.1.15,2013-01-09 19:01:00,
2013-01-09 13:03:00,49.1,35.4,30.36,NW,321,1.0,1.0,59,0.00,,,0.00,Wunderground v.1.15,2013-01-09 19:03:00,
2013-01-09 13:06:00,49.0,34.9,30.37,NW,318,1.0,5.0,58,0.00,,,0.00,Wunderground v.1.15,2013-01-09 19:06:00,
2013-01-09 13:08:00,49.0,34.9,30.37,NNW,335,2.0,5.0,58,0.00,,,0.00,Wunderground v.1.15,2013-01-09 19:08:00,
2013-01-09 13:09:00,48.9,34.3,30.37,NNW,342,2.0,5.0,57,0.00,,,0.00,Wunderground v.1.15,2013-01-09 19:09:00,
2013-01-09 13:10:00,48.9,34.3,30.37,WSW,243,2.0,3.0,57,0.00,,,0.00,Wunderground v.1.15,2013-01-09 19:10:00,
2013-01-09 13:14:00,48.9,34.3,30.37,WNW,295,2.0,4.0,57,0.00,,,0.00,Wunderground v.1.15,2013-01-09 19:14:00,
2013-01-09 13:16:00,48.9,34.8,30.36,NW,317,2.0,4.0,58,0.00,,,0.00,Wunderground v.1.15,2013-01-09 19:16:00,
2013-01-09 13:17:00,49.0,34.4,30.36,NNW,337,3.0,4.0,57,0.00,,,0.00,Wunderground v.1.15,2013-01-09 19:17:00,
2013-01-09 13:20:00,48.9,34.3,30.36,WNW,302,3.0,3.0,57,0.00,,,0.00,Wunderground v.1.15,2013-01-09 19:20:00,
2013-01-09 13:22:00,48.9,34.3,30.36,NW,305,3.0,6.0,57,0.00,,,0.00,Wunderground v.1.15,2013-01-09 19:22:00,
2013-01-09 13:23:00,48.9,33.9,30.36,NW,321,3.0,6.0,56,0.00,,,0.00,Wunderground v.1.15,2013-01-09 19:23:00,
2013-01-09 13:26:00,48.8,33.8,30.37,NW,318,3.0,6.0,56,0.00,,,0.00,Wunderground v.1.15,2013-01-09 19:26:00,
2013-01-09 13:27:00,48.7,33.2,30.37,WNW,295,3.0,6.0,55,0.00,,,0.00,Wunderground v.1.15,2013-01-09 19:27:00,
2013-01-09 13:29:00,48.7,33.7,30.37,WNW,297,3.0,6.0,56,0.00,,,0.00,Wunderground v.1.15,2013-01-09 19:29:00,
2013-01-09 13:33:00,48.7,34.1,30.37,WNW,288,3.0,6.0,57,0.00,,,0.00,Wunderground v.1.15,2013-01-09 19:33:00,
2013-01-09 13:35:00,48.7,34.6,30.37,NW,308,3.0,6.0,58,0.00,,,0.00,Wunderground v.1.15,2013-01-09 19:35:00,
2013-01-09 13:37:00,48.7,33.7,30.37,WNW,295,3.0,6.0,56,0.00,,,0.00,Wunderground v.1.15,2013-01-09 19:37:00,
2013-01-09 13:39:00,48.7,34.6,30.37,NW,304,3.0,6.0,58,0.00,,,0.00,Wunderground v.1.15,2013-01-09 19:39:00,
2013-01-09 13:40:00,48.8,34.7,30.37,WNW,300,3.0,4.0,58,0.00,,,0.00,Wunderground v.1.15,2013-01-09 19:40:00,
2013-01-09 13:42:00,48.8,35.1,30.38,NNW,333,3.0,4.0,59,0.00,,,0.00,Wunderground v.1.15,2013-01-09 19:42:00,
2013-01-09 13:45:00,48.8,34.2,30.38,WNW,294,3.0,5.0,57,0.00,,,0.00,Wunderground v.1.15,2013-01-09 19:45:00,
2013-01-09 13:50:00,48.9,34.3,30.38,NW,316,2.0,2.0,57,0.00,,,0.00,Wunderground v.1.15,2013-01-09 19:50:00,
2013-01-09 13:52:00,48.9,34.8,30.38,WNW,288,2.0,3.0,58,0.00,,,0.00,Wunderground v.1.15,2013-01-09 19:52:00,
2013-01-09 13:54:00,48.9,34.3,30.38,WNW,300,2.0,5.0,57,0.00,,,0.00,Wunderground v.1.15,2013-01-09 19:54:00,
2013-01-09 13:55:00,49.0,34.0,30.38,WNW,285,2.0,5.0,56,0.00,,,0.00,Wunderground v.1.15,2013-01-09 19:55:00,
2013-01-09 13:56:00,48.9,33.9,30.38,WNW,287,3.0,5.0,56,0.00,,,0.00,Wunderground v.1.15,2013-01-09 19:56:00,
2013-01-09 13:59:00,48.8,33.8,30.38,NNW,328,3.0,6.0,56,0.00,,,0.00,Wunderground v.1.15,2013-01-09 19:59:00,
2013-01-09 14:01:00,48.7,33.2,30.38,WNW,298,3.0,5.0,55,0.00,,,0.00,Wunderground v.1.15,2013-01-09 20:01:00,
2013-01-09 14:06:00,48.5,32.6,30.38,NW,321,4.0,7.0,54,0.00,,,0.00,Wunderground v.1.15,2013-01-09 20:06:00,
2013-01-09 14:08:00,48.5,33.5,30.38,North,355,4.0,7.0,56,0.00,,,0.00,Wunderground v.1.15,2013-01-09 20:08:00,
2013-01-09 14:09:00,48.5,33.1,30.38,NW,315,4.0,4.0,55,0.00,,,0.00,Wunderground v.1.15,2013-01-09 20:09:00,
2013-01-09 14:12:00,48.4,33.9,30.38,NW,325,3.0,4.0,57,0.00,,,0.00,Wunderground v.1.15,2013-01-09 20:12:00,
2013-01-09 14:16:00,48.4,33.4,30.38,NW,314,3.0,6.0,56,0.00,,,0.00,Wunderground v.1.15,2013-01-09 20:16:00,
2013-01-09 14:17:00,48.4,33.9,30.38,WNW,291,3.0,6.0,57,0.00,,,0.00,Wunderground v.1.15,2013-01-09 20:17:00,
2013-01-09 14:18:00,48.4,33.4,30.38,WNW,297,3.0,6.0,56,0.00,,,0.00,Wunderground v.1.15,2013-01-09 20:18:00,
2013-01-09 14:21:00,48.5,33.5,30.38,NNW,331,3.0,3.0,56,0.00,,,0.00,Wunderground v.1.15,2013-01-09 20:21:00,
2013-01-09 14:22:00,48.5,33.9,30.38,West,277,4.0,4.0,57,0.00,,,0.00,Wunderground v.1.15,2013-01-09 20:22:00,
2013-01-09 14:23:00,48.5,33.9,30.39,WNW,298,3.0,4.0,57,0.00,,,0.00,Wunderground v.1.15,2013-01-09 20:23:00,
2013-01-09 14:26:00,48.6,34.0,30.39,NNW,331,3.0,4.0,57,0.00,,,0.00,Wunderground v.1.15,2013-01-09 20:26:00,
2013-01-09 14:28:00,48.7,34.6,30.39,NW,304,2.0,4.0,58,0.00,,,0.00,Wunderground v.1.15,2013-01-09 20:28:00,
2013-01-09 14:31:00,48.8,33.8,30.39,WNW,302,1.0,2.0,56,0.00,,,0.00,Wunderground v.1.15,2013-01-09 20:31:00,
2013-01-09 14:32:00,48.9,33.9,30.40,WNW,302,1.0,5.0,56,0.00,,,0.00,Wunderground v.1.15,2013-01-09 20:32:00,
2013-01-09 14:33:00,48.9,33.4,30.40,WNW,288,1.0,5.0,55,0.00,,,0.00,Wunderground v.1.15,2013-01-09 20:33:00,
2013-01-09 14:36:00,49.1,33.2,30.40,NNW,327,1.0,5.0,54,0.00,,,0.00,Wunderground v.1.15,2013-01-09 20:36:00,
2013-01-09 14:38:00,49.1,33.2,30.40,WNW,297,1.0,5.0,54,0.00,,,0.00,Wunderground v.1.15,2013-01-09 20:38:00,
2013-01-09 14:39:00,49.1,32.7,30.40,NW,320,1.0,5.0,53,0.00,,,0.00,Wunderground v.1.15,2013-01-09 20:39:00,
2013-01-09 14:43:00,49.0,33.1,30.40,NW,307,2.0,4.0,54,0.00,,,0.00,Wunderground v.1.15,2013-01-09 20:43:00,
2013-01-09 14:44:00,49.1,32.7,30.40,NW,305,2.0,5.0,53,0.00,,,0.00,Wunderground v.1.15,2013-01-09 20:44:00,
2013-01-09 14:45:00,49.0,33.1,30.40,NNW,335,2.0,6.0,54,0.00,,,0.00,Wunderground v.1.15,2013-01-09 20:45:00,
2013-01-09 14:46:00,49.0,31.6,30.40,NW,317,2.0,6.0,51,0.00,,,0.00,Wunderground v.1.15,2013-01-09 20:46:00,
2013-01-09 14:50:00,49.0,33.1,30.40,WNW,288,2.0,2.0,54,0.00,,,0.00,Wunderground v.1.15,2013-01-09 20:50:00,
2013-01-09 14:51:00,49.0,33.1,30.40,NNW,335,2.0,2.0,54,0.00,,,0.00,Wunderground v.1.15,2013-01-09 20:51:00,
2013-01-09 14:55:00,48.9,33.4,30.41,WNW,297,1.0,2.0,55,0.00,,,0.00,Wunderground v.1.15,2013-01-09 20:55:00,
2013-01-09 14:56:00,48.9,33.4,30.41,NW,312,1.0,2.0,55,0.00,,,0.00,Wunderground v.1.15,2013-01-09 20:56:00,
2013-01-09 14:57:00,48.8,32.9,30.41,WNW,290,1.0,2.0,54,0.00,,,0.00,Wunderground v.1.15,2013-01-09 20:57:00,
2013-01-09 15:03:00,48.5,33.1,30.41,NW,325,1.0,6.0,55,0.00,,,0.00,Wunderground v.1.15,2013-01-09 21:03:00,
2013-01-09 15:04:00,48.4,33.0,30.41,WNW,300,1.0,6.0,55,0.00,,,0.00,Wunderground v.1.15,2013-01-09 21:04:00,
2013-01-09 15:05:00,48.3,33.3,30.41,NNW,342,1.0,6.0,56,0.00,,,0.00,Wunderground v.1.15,2013-01-09 21:05:00,
2013-01-09 15:08:00,48.2,33.7,30.41,NNW,342,1.0,6.0,57,0.00,,,0.00,Wunderground v.1.15,2013-01-09 21:08:00,
2013-01-09 15:09:00,48.2,32.8,30.41,WNW,291,1.0,6.0,55,0.00,,,0.00,Wunderground v.1.15,2013-01-09 21:09:00,
2013-01-09 15:10:00,48.1,33.1,30.41,WNW,294,1.0,1.0,56,0.00,,,0.00,Wunderground v.1.15,2013-01-09 21:10:00,
2013-01-09 15:14:00,48.0,33.0,30.41,West,274,1.0,3.0,56,0.00,,,0.00,Wunderground v.1.15,2013-01-09 21:14:00,
2013-01-09 15:15:00,47.9,32.9,30.40,NW,308,2.0,3.0,56,0.00,,,0.00,Wunderground v.1.15,2013-01-09 21:15:00,
2013-01-09 15:19:00,47.7,33.2,30.40,NNW,338,2.0,4.0,57,0.00,,,0.00,Wunderground v.1.15,2013-01-09 21:19:00,
2013-01-09 15:20:00,47.6,32.7,30.40,NNW,340,2.0,5.0,56,0.00,,,0.00,Wunderground v.1.15,2013-01-09 21:20:00,
2013-01-09 15:22:00,47.6,32.2,30.40,NE,38,2.0,6.0,55,0.00,,,0.00,Wunderground v.1.15,2013-01-09 21:22:00,
2013-01-09 15:25:00,47.5,32.6,30.40,West,278,3.0,6.0,56,0.00,,,0.00,Wunderground v.1.15,2013-01-09 21:25:00,
2013-01-09 15:27:00,47.4,32.5,30.40,NNW,335,3.0,6.0,56,0.00,,,0.00,Wunderground v.1.15,2013-01-09 21:27:00,
2013-01-09 15:29:00,47.3,32.8,30.40,North,352,4.0,6.0,57,0.00,,,0.00,Wunderground v.1.15,2013-01-09 21:29:00,
2013-01-09 15:31:00,47.3,32.8,30.40,NNW,335,4.0,6.0,57,0.00,,,0.00,Wunderground v.1.15,2013-01-09 21:31:00,
2013-01-09 15:33:00,47.2,32.7,30.41,NNW,335,4.0,6.0,57,0.00,,,0.00,Wunderground v.1.15,2013-01-09 21:33:00,
2013-01-09 15:35:00,47.0,33.0,30.41,NNW,335,4.0,6.0,58,0.00,,,0.00,Wunderground v.1.15,2013-01-09 21:35:00,
2013-01-09 15:37:00,46.9,33.3,30.41,WNW,286,3.0,6.0,59,0.00,,,0.00,Wunderground v.1.15,2013-01-09 21:37:00,
2013-01-09 15:40:00,46.7,33.1,30.41,NNW,337,3.0,3.0,59,0.00,,,0.00,Wunderground v.1.15,2013-01-09 21:40:00,
2013-01-09 15:41:00,46.7,33.1,30.41,NW,315,3.0,3.0,59,0.00,,,0.00,Wunderground v.1.15,2013-01-09 21:41:00,
2013-01-09 15:42:00,46.6,33.0,30.42,NW,322,2.0,3.0,59,0.00,,,0.00,Wunderground v.1.15,2013-01-09 21:42:00,
2013-01-09 15:45:00,46.4,32.8,30.41,WNW,300,2.0,8.0,59,0.00,,,0.00,Wunderground v.1.15,2013-01-09 21:45:00,
2013-01-09 15:46:00,46.3,32.7,30.41,North,357,2.0,8.0,59,0.00,,,0.00,Wunderground v.1.15,2013-01-09 21:46:00,
2013-01-09 15:50:00,46.1,33.0,30.41,NNW,335,3.0,3.0,60,0.00,,,0.00,Wunderground v.1.15,2013-01-09 21:50:00,
2013-01-09 15:51:00,46.0,33.3,30.41,NNE,13,3.0,5.0,61,0.00,,,0.00,Wunderground v.1.15,2013-01-09 21:51:00,
2013-01-09 15:53:00,45.9,33.2,30.41,NNW,347,3.0,5.0,61,0.00,,,0.00,Wunderground v.1.15,2013-01-09 21:53:00,
2013-01-09 15:56:00,45.6,33.3,30.41,NNW,333,4.0,5.0,62,0.00,,,0.00,Wunderground v.1.15,2013-01-09 21:56:00,
2013-01-09 15:57:00,45.5,33.2,30.41,NNE,16,3.0,5.0,62,0.00,,,0.00,Wunderground v.1.15,2013-01-09 21:57:00,
2013-01-09 16:02:00,45.3,33.0,30.42,NNW,342,3.0,3.0,62,0.00,,,0.00,Wunderground v.1.15,2013-01-09 22:02:00,
2013-01-09 16:04:00,45.2,33.3,30.42,North,352,2.0,3.0,63,0.00,,,0.00,Wunderground v.1.15,2013-01-09 22:04:00,
2013-01-09 16:06:00,45.1,33.2,30.42,NW,324,2.0,3.0,63,0.00,,,0.00,Wunderground v.1.15,2013-01-09 22:06:00,
2013-01-09 16:07:00,45.1,33.2,30.42,NNW,347,2.0,3.0,63,0.00,,,0.00,Wunderground v.1.15,2013-01-09 22:07:00,
2013-01-09 16:11:00,45.0,33.2,30.42,WNW,302,2.0,2.0,63,0.00,,,0.00,Wunderground v.1.15,2013-01-09 22:11:00,
2013-01-09 16:12:00,45.0,33.2,30.42,NNW,328,2.0,2.0,63,0.00,,,0.00,Wunderground v.1.15,2013-01-09 22:12:00,
2013-01-09 16:14:00,45.0,33.2,30.42,NNW,338,1.0,2.0,63,0.00,,,0.00,Wunderground v.1.15,2013-01-09 22:14:00,
2013-01-09 16:17:00,44.9,33.5,30.43,North,358,1.0,2.0,64,0.00,,,0.00,Wunderground v.1.15,2013-01-09 22:17:00,
2013-01-09 16:18:00,44.8,33.4,30.43,WNW,297,1.0,2.0,64,0.00,,,0.00,Wunderground v.1.15,2013-01-09 22:18:00,
2013-01-09 16:19:00,44.8,33.4,30.43,NW,313,1.0,2.0,64,0.00,,,0.00,Wunderground v.1.15,2013-01-09 22:19:00,
2013-01-09 16:20:00,44.7,33.3,30.43,NNW,334,1.0,2.0,64,0.00,,,0.00,Wunderground v.1.15,2013-01-09 22:20:00,
2013-01-09 16:22:00,44.5,33.1,30.43,NNW,329,0.0,2.0,64,0.00,,,0.00,Wunderground v.1.15,2013-01-09 22:22:00,
2013-01-09 16:23:00,44.4,33.0,30.42,NW,316,0.0,2.0,64,0.00,,,0.00,Wunderground v.1.15,2013-01-09 22:23:00,
2013-01-09 16:25:00,44.2,33.2,30.43,NW,309,0.0,2.0,65,0.00,,,0.00,Wunderground v.1.15,2013-01-09 22:25:00,
2013-01-09 16:28:00,43.9,32.9,30.43,NW,320,0.0,2.0,65,0.00,,,0.00,Wunderground v.1.15,2013-01-09 22:28:00,
2013-01-09 16:31:00,43.6,32.6,30.43,NW,312,0.0,0.0,65,0.00,,,0.00,Wunderground v.1.15,2013-01-09 22:31:00,
2013-01-09 16:32:00,43.5,32.9,30.43,NW,318,0.0,0.0,66,0.00,,,0.00,Wunderground v.1.15,2013-01-09 22:32:00,
2013-01-09 16:36:00,42.7,32.1,30.43,NW,318,0.0,2.0,66,0.00,,,0.00,Wunderground v.1.15,2013-01-09 22:36:00,
2013-01-09 16:37:00,42.5,32.3,30.43,WNW,298,0.0,2.0,67,0.00,,,0.00,Wunderground v.1.15,2013-01-09 22:37:00,
2013-01-09 16:39:00,42.2,32.0,30.43,NNW,347,0.0,2.0,67,0.00,,,0.00,Wunderground v.1.15,2013-01-09 22:39:00,
2013-01-09 16:40:00,42.1,32.3,30.43,NNW,331,0.0,0.0,68,0.00,,,0.00,Wunderground v.1.15,2013-01-09 22:40:00,
2013-01-09 16:42:00,41.8,32.0,30.43,NNW,335,0.0,0.0,68,0.00,,,0.00,Wunderground v.1.15,2013-01-09 22:42:00,
2013-01-09 16:46:00,41.2,31.8,30.43,NNW,335,1.0,3.0,69,0.00,,,0.00,Wunderground v.1.15,2013-01-09 22:46:00,
2013-01-09 16:48:00,40.9,31.5,30.43,NNW,346,1.0,3.0,69,0.00,,,0.00,Wunderground v.1.15,2013-01-09 22:48:00,
2013-01-09 16:50:00,40.9,31.9,30.43,NNW,347,2.0,2.0,70,0.00,,,0.00,Wunderground v.1.15,2013-01-09 22:50:00,
2013-01-09 16:51:00,40.9,31.9,30.43,NNW,338,2.0,2.0,70,0.00,,,0.00,Wunderground v.1.15,2013-01-09 22:51:00,
2013-01-09 16:52:00,40.9,31.9,30.42,NNW,335,2.0,2.0,70,0.00,,,0.00,Wunderground v.1.15,2013-01-09 22:52:00,
2013-01-09 16:54:00,40.8,31.8,30.42,NNW,340,2.0,2.0,70,0.00,,,0.00,Wunderground v.1.15,2013-01-09 22:54:00,
2013-01-09 16:57:00,40.8,31.8,30.42,NW,311,2.0,3.0,70,0.00,,,0.00,Wunderground v.1.15,2013-01-09 22:57:00,
2013-01-09 16:58:00,40.7,31.7,30.43,NNW,332,2.0,3.0,70,0.00,,,0.00,Wunderground v.1.15,2013-01-09 22:58:00,
2013-01-09 16:59:00,40.7,31.7,30.42,NNW,338,2.0,3.0,70,0.00,,,0.00,Wunderground v.1.15,2013-01-09 22:59:00,
2013-01-09 17:00:00,40.5,31.5,30.43,NNW,330,1.0,2.0,70,0.00,,,0.00,Wunderground v.1.15,2013-01-09 23:00:00,
2013-01-09 17:06:00,40.2,31.5,30.43,WNW,302,1.0,2.0,71,0.00,,,0.00,Wunderground v.1.15,2013-01-09 23:06:00,
2013-01-09 17:07:00,40.2,31.5,30.43,NNW,327,1.0,2.0,71,0.00,,,0.00,Wunderground v.1.15,2013-01-09 23:07:00,
2013-01-09 17:10:00,40.0,31.4,30.43,NNW,334,0.0,0.0,71,0.00,,,0.00,Wunderground v.1.15,2013-01-09 23:10:00,
2013-01-09 17:12:00,39.7,31.1,30.43,NNW,334,0.0,0.0,71,0.00,,,0.00,Wunderground v.1.15,2013-01-09 23:12:00,
2013-01-09 17:13:00,39.5,31.2,30.43,NW,324,0.0,0.0,72,0.00,,,0.00,Wunderground v.1.15,2013-01-09 23:13:00,
2013-01-09 17:15:00,39.3,31.0,30.43,NW,325,0.0,0.0,72,0.00,,,0.00,Wunderground v.1.15,2013-01-09 23:15:00,
2013-01-09 17:17:00,39.2,31.3,30.43,NW,325,0.0,0.0,73,0.00,,,0.00,Wunderground v.1.15,2013-01-09 23:17:00,
2013-01-09 17:20:00,38.9,31.0,30.43,NW,326,0.0,0.0,73,0.00,,,0.00,Wunderground v.1.15,2013-01-09 23:20:00,
2013-01-09 17:22:00,38.5,30.6,30.43,NW,325,0.0,0.0,73,0.00,,,0.00,Wunderground v.1.15,2013-01-09 23:22:00,
2013-01-09 17:24:00,38.3,30.7,30.43,NW,325,0.0,0.0,74,0.00,,,0.00,Wunderground v.1.15,2013-01-09 23:24:00,
2013-01-09 17:25:00,38.3,30.7,30.43,NW,325,0.0,0.0,74,0.00,,,0.00,Wunderground v.1.15,2013-01-09 23:25:00,
2013-01-09 17:27:00,38.1,30.5,30.43,NW,325,0.0,0.0,74,0.00,,,0.00,Wunderground v.1.15,2013-01-09 23:27:00,
2013-01-09 17:28:00,38.0,30.4,30.43,NW,324,0.0,0.0,74,0.00,,,0.00,Wunderground v.1.15,2013-01-09 23:28:00,
2013-01-09 17:30:00,37.7,30.2,30.43,NW,325,0.0,0.0,74,0.00,,,0.00,Wunderground v.1.15,2013-01-09 23:30:00,
2013-01-09 17:33:00,37.4,30.2,30.44,NW,325,0.0,0.0,75,0.00,,,0.00,Wunderground v.1.15,2013-01-09 23:33:00,
2013-01-09 17:35:00,37.1,29.9,30.44,NW,325,0.0,0.0,75,0.00,,,0.00,Wunderground v.1.15,2013-01-09 23:35:00,
2013-01-09 17:38:00,36.7,29.5,30.44,NW,324,0.0,0.0,75,0.00,,,0.00,Wunderground v.1.15,2013-01-09 23:38:00,
2013-01-09 17:40:00,36.3,29.1,30.44,NW,325,0.0,0.0,75,0.00,,,0.00,Wunderground v.1.15,2013-01-09 23:40:00,
2013-01-09 17:41:00,36.2,29.4,30.44,NW,324,0.0,0.0,76,0.00,,,0.00,Wunderground v.1.15,2013-01-09 23:41:00,
2013-01-09 17:42:00,36.0,29.2,30.44,NW,325,0.0,0.0,76,0.00,,,0.00,Wunderground v.1.15,2013-01-09 23:42:00,
2013-01-09 17:43:00,35.9,29.1,30.44,NW,324,0.0,0.0,76,0.00,,,0.00,Wunderground v.1.15,2013-01-09 23:43:00,
2013-01-09 17:46:00,35.9,29.7,30.44,NNW,328,0.0,0.0,78,0.00,,,0.00,Wunderground v.1.15,2013-01-09 23:46:00,
2013-01-09 17:48:00,35.8,29.9,30.44,NNW,340,0.0,0.0,79,0.00,,,0.00,Wunderground v.1.15,2013-01-09 23:48:00,
2013-01-09 17:51:00,35.6,29.7,30.44,NNW,340,0.0,0.0,79,0.00,,,0.00,Wunderground v.1.15,2013-01-09 23:51:00,
2013-01-09 17:52:00,35.5,29.6,30.44,NNW,340,0.0,0.0,79,0.00,,,0.00,Wunderground v.1.15,2013-01-09 23:52:00,
2013-01-09 17:53:00,35.3,29.4,30.44,NNW,340,0.0,0.0,79,0.00,,,0.00,Wunderground v.1.15,2013-01-09 23:53:00,
2013-01-09 17:55:00,35.1,29.2,30.45,NNW,340,0.0,0.0,79,0.00,,,0.00,Wunderground v.1.15,2013-01-09 23:55:00,
2013-01-09 17:57:00,34.9,29.4,30.45,NNW,340,0.0,0.0,80,0.00,,,0.00,Wunderground v.1.15,2013-01-09 23:57:00,
2013-01-09 18:00:00,34.7,29.2,30.45,NNW,340,0.0,0.0,80,0.00,,,0.00,Wunderground v.1.15,2013-01-10 00:00:00,
2013-01-09 18:03:00,34.4,28.9,30.45,NNW,340,0.0,0.0,80,0.00,,,0.00,Wunderground v.1.15,2013-01-10 00:03:00,
2013-01-09 18:06:00,34.2,29.0,30.45,NNW,340,0.0,0.0,81,0.00,,,0.00,Wunderground v.1.15,2013-01-10 00:06:00,
2013-01-09 18:08:00,34.1,28.9,30.45,NNW,340,0.0,0.0,81,0.00,,,0.00,Wunderground v.1.15,2013-01-10 00:08:00,
2013-01-09 18:09:00,34.1,29.2,30.45,NNW,340,0.0,0.0,82,0.00,,,0.00,Wunderground v.1.15,2013-01-10 00:09:00,
2013-01-09 18:13:00,34.4,29.8,30.46,NNW,338,0.0,0.0,83,0.00,,,0.00,Wunderground v.1.15,2013-01-10 00:13:00,
2013-01-09 18:14:00,34.5,29.9,30.46,NNW,338,0.0,0.0,83,0.00,,,0.00,Wunderground v.1.15,2013-01-10 00:14:00,
2013-01-09 18:16:00,34.6,29.7,30.46,NNW,338,0.0,0.0,82,0.00,,,0.00,Wunderground v.1.15,2013-01-10 00:16:00,
2013-01-09 18:21:00,34.5,29.3,30.46,NNW,339,0.0,0.0,81,0.00,,,0.00,Wunderground v.1.15,2013-01-10 00:21:00,
2013-01-09 18:22:00,34.4,29.2,30.46,NNW,338,0.0,0.0,81,0.00,,,0.00,Wunderground v.1.15,2013-01-10 00:22:00,
2013-01-09 18:25:00,34.3,29.1,30.46,NNW,338,0.0,0.0,81,0.00,,,0.00,Wunderground v.1.15,2013-01-10 00:25:00,
2013-01-09 18:30:00,34.1,29.2,30.46,NNW,338,0.0,0.0,82,0.00,,,0.00,Wunderground v.1.15,2013-01-10 00:30:00,
2013-01-09 18:32:00,34.1,29.2,30.46,NNW,338,0.0,0.0,82,0.00,,,0.00,Wunderground v.1.15,2013-01-10 00:32:00,
2013-01-09 18:33:00,34.1,29.2,30.46,NNW,338,0.0,0.0,82,0.00,,,0.00,Wunderground v.1.15,2013-01-10 00:33:00,
2013-01-09 18:38:00,33.8,28.9,30.46,NNW,338,0.0,0.0,82,0.00,,,0.00,Wunderground v.1.15,2013-01-10 00:38:00,
2013-01-09 18:39:00,33.8,28.9,30.46,NNW,338,0.0,0.0,82,0.00,,,0.00,Wunderground v.1.15,2013-01-10 00:39:00,
2013-01-09 18:42:00,33.8,29.2,30.46,NNW,338,0.0,0.0,83,0.00,,,0.00,Wunderground v.1.15,2013-01-10 00:42:00,
2013-01-09 18:44:00,33.8,28.9,30.47,WSW,257,0.0,0.0,82,0.00,,,0.00,Wunderground v.1.15,2013-01-10 00:44:00,
2013-01-09 18:45:00,33.7,28.8,30.47,WSW,257,0.0,0.0,82,0.00,,,0.00,Wunderground v.1.15,2013-01-10 00:45:00,
2013-01-09 18:46:00,33.8,29.2,30.47,WSW,257,0.0,0.0,83,0.00,,,0.00,Wunderground v.1.15,2013-01-10 00:46:00,
2013-01-09 18:47:00,33.9,29.3,30.47,WSW,257,0.0,0.0,83,0.00,,,0.00,Wunderground v.1.15,2013-01-10 00:47:00,
2013-01-09 18:52:00,34.3,29.7,30.47,WSW,257,0.0,0.0,83,0.00,,,0.00,Wunderground v.1.15,2013-01-10 00:52:00,
2013-01-09 18:53:00,34.4,29.8,30.47,WSW,257,0.0,0.0,83,0.00,,,0.00,Wunderground v.1.15,2013-01-10 00:53:00,
2013-01-09 18:56:00,34.6,29.7,30.47,WSW,257,0.0,0.0,82,0.00,,,0.00,Wunderground v.1.15,2013-01-10 00:56:00,
2013-01-09 18:58:00,34.5,29.3,30.47,WSW,257,0.0,0.0,81,0.00,,,0.00,Wunderground v.1.15,2013-01-10 00:58:00,
2013-01-09 18:59:00,34.5,29.3,30.47,WSW,257,0.0,0.0,81,0.00,,,0.00,Wunderground v.1.15,2013-01-10 00:59:00,
2013-01-09 19:02:00,34.2,29.0,30.48,WSW,257,0.0,0.0,81,0.00,,,0.00,Wunderground v.1.15,2013-01-10 01:02:00,
2013-01-09 19:03:00,34.1,28.9,30.48,WSW,257,0.0,0.0,81,0.00,,,0.00,Wunderground v.1.15,2013-01-10 01:03:00,
2013-01-09 19:05:00,34.1,29.2,30.48,WSW,257,0.0,0.0,82,0.00,,,0.00,Wunderground v.1.15,2013-01-10 01:05:00,
2013-01-09 19:06:00,34.1,29.2,30.48,WSW,257,0.0,0.0,82,0.00,,,0.00,Wunderground v.1.15,2013-01-10 01:06:00,
2013-01-09 19:08:00,34.0,29.1,30.48,WSW,257,0.0,0.0,82,0.00,,,0.00,Wunderground v.1.15,2013-01-10 01:08:00,
2013-01-09 19:09:00,33.9,28.7,30.48,WSW,257,0.0,0.0,81,0.00,,,0.00,Wunderground v.1.15,2013-01-10 01:09:00,
2013-01-09 19:10:00,33.9,28.7,30.48,WSW,257,0.0,0.0,81,0.00,,,0.00,Wunderground v.1.15,2013-01-10 01:10:00,
2013-01-09 19:14:00,33.6,28.7,30.48,WSW,257,0.0,0.0,82,0.00,,,0.00,Wunderground v.1.15,2013-01-10 01:14:00,
2013-01-09 19:15:00,33.5,28.6,30.48,WSW,257,0.0,0.0,82,0.00,,,0.00,Wunderground v.1.15,2013-01-10 01:15:00,
2013-01-09 19:16:00,33.4,28.5,30.48,WSW,257,0.0,0.0,82,0.00,,,0.00,Wunderground v.1.15,2013-01-10 01:16:00,
2013-01-09 19:20:00,32.9,27.7,30.48,WSW,257,0.0,0.0,81,0.00,,,0.00,Wunderground v.1.15,2013-01-10 01:20:00,
2013-01-09 19:21:00,32.8,27.9,30.49,WSW,257,0.0,0.0,82,0.00,,,0.00,Wunderground v.1.15,2013-01-10 01:21:00,
2013-01-09 19:24:00,32.4,27.5,30.49,WSW,257,0.0,0.0,82,0.00,,,0.00,Wunderground v.1.15,2013-01-10 01:24:00,
2013-01-09 19:25:00,32.3,27.4,30.49,WSW,257,0.0,0.0,82,0.00,,,0.00,Wunderground v.1.15,2013-01-10 01:25:00,
2013-01-09 19:30:00,32.2,27.9,30.49,West,259,0.0,0.0,84,0.00,,,0.00,Wunderground v.1.15,2013-01-10 01:30:00,
2013-01-09 19:31:00,32.1,27.8,30.49,West,259,0.0,0.0,84,0.00,,,0.00,Wunderground v.1.15,2013-01-10 01:31:00,
2013-01-09 19:32:00,32.1,27.8,30.49,West,259,0.0,0.0,84,0.00,,,0.00,Wunderground v.1.15,2013-01-10 01:32:00,
2013-01-09 19:33:00,32.1,27.8,30.49,West,259,0.0,0.0,84,0.00,,,0.00,Wunderground v.1.15,2013-01-10 01:33:00,
2013-01-09 19:35:00,32.0,27.7,30.49,West,259,0.0,0.0,84,0.00,,,0.00,Wunderground v.1.15,2013-01-10 01:35:00,
2013-01-09 19:36:00,31.9,27.6,30.49,West,259,0.0,0.0,84,0.00,,,0.00,Wunderground v.1.15,2013-01-10 01:36:00,
2013-01-09 19:37:00,31.9,27.6,30.49,West,259,0.0,0.0,84,0.00,,,0.00,Wunderground v.1.15,2013-01-10 01:37:00,
2013-01-09 19:38:00,31.9,27.6,30.49,West,259,0.0,0.0,84,0.00,,,0.00,Wunderground v.1.15,2013-01-10 01:38:00,
2013-01-09 19:40:00,31.8,27.5,30.49,West,259,0.0,0.0,84,0.00,,,0.00,Wunderground v.1.15,2013-01-10 01:40:00,
2013-01-09 19:41:00,31.9,27.6,30.49,West,259,0.0,0.0,84,0.00,,,0.00,Wunderground v.1.15,2013-01-10 01:41:00,
2013-01-09 19:43:00,31.7,27.4,30.49,West,259,0.0,0.0,84,0.00,,,0.00,Wunderground v.1.15,2013-01-10 01:43:00,
2013-01-09 19:46:00,31.3,26.7,30.49,West,259,0.0,0.0,83,0.00,,,0.00,Wunderground v.1.15,2013-01-10 01:46:00,
2013-01-09 19:48:00,31.1,26.5,30.49,West,259,0.0,0.0,83,0.00,,,0.00,Wunderground v.1.15,2013-01-10 01:48:00,
2013-01-09 19:50:00,30.9,26.6,30.49,West,259,0.0,0.0,84,0.00,,,0.00,Wunderground v.1.15,2013-01-10 01:50:00,
2013-01-09 19:51:00,30.9,26.6,30.49,West,259,0.0,0.0,84,0.00,,,0.00,Wunderground v.1.15,2013-01-10 01:51:00,
2013-01-09 19:53:00,30.9,26.9,30.49,WSW,257,0.0,0.0,85,0.00,,,0.00,Wunderground v.1.15,2013-01-10 01:53:00,
2013-01-09 19:54:00,30.9,26.9,30.49,West,259,0.0,0.0,85,0.00,,,0.00,Wunderground v.1.15,2013-01-10 01:54:00,
2013-01-09 19:59:00,30.8,26.8,30.49,West,259,0.0,0.0,85,0.00,,,0.00,Wunderground v.1.15,2013-01-10 01:59:00,
2013-01-09 20:00:00,30.7,26.7,30.49,NNW,329,0.0,0.0,85,0.00,,,0.00,Wunderground v.1.15,2013-01-10 02:00:00,
2013-01-09 20:01:00,30.6,26.6,30.49,NNW,329,0.0,0.0,85,0.00,,,0.00,Wunderground v.1.15,2013-01-10 02:01:00,
2013-01-09 20:02:00,30.6,26.6,30.49,NNW,329,0.0,0.0,85,0.00,,,0.00,Wunderground v.1.15,2013-01-10 02:02:00,
2013-01-09 20:06:00,30.5,26.5,30.49,NNW,329,0.0,0.0,85,0.00,,,0.00,Wunderground v.1.15,2013-01-10 02:06:00,
2013-01-09 20:07:00,30.5,26.5,30.49,NNW,329,0.0,0.0,85,0.00,,,0.00,Wunderground v.1.15,2013-01-10 02:07:00,
2013-01-09 20:08:00,30.4,26.4,30.49,SE,130,0.0,0.0,85,0.00,,,0.00,Wunderground v.1.15,2013-01-10 02:08:00,
2013-01-09 20:11:00,30.1,26.1,30.49,SE,130,0.0,0.0,85,0.00,,,0.00,Wunderground v.1.15,2013-01-10 02:11:00,
2013-01-09 20:13:00,29.9,25.9,30.49,SE,129,0.0,0.0,85,0.00,,,0.00,Wunderground v.1.15,2013-01-10 02:13:00,
2013-01-09 20:14:00,29.7,25.7,30.49,SE,130,0.0,0.0,85,0.00,,,0.00,Wunderground v.1.15,2013-01-10 02:14:00,
2013-01-09 20:18:00,29.4,25.7,30.50,SE,129,0.0,0.0,86,0.00,,,0.00,Wunderground v.1.15,2013-01-10 02:18:00,
2013-01-09 20:19:00,29.3,25.6,30.50,SE,129,0.0,0.0,86,0.00,,,0.00,Wunderground v.1.15,2013-01-10 02:19:00,
2013-01-09 20:20:00,29.2,25.5,30.50,SE,129,0.0,0.0,86,0.00,,,0.00,Wunderground v.1.15,2013-01-10 02:20:00,
2013-01-09 20:21:00,29.2,25.5,30.49,SE,129,0.0,0.0,86,0.00,,,0.00,Wunderground v.1.15,2013-01-10 02:21:00,
2013-01-09 20:23:00,29.0,25.3,30.50,SE,130,0.0,0.0,86,0.00,,,0.00,Wunderground v.1.15,2013-01-10 02:23:00,
2013-01-09 20:24:00,29.0,25.3,30.49,SE,129,0.0,0.0,86,0.00,,,0.00,Wunderground v.1.15,2013-01-10 02:24:00,
2013-01-09 20:26:00,28.9,25.2,30.49,SE,130,0.0,0.0,86,0.00,,,0.00,Wunderground v.1.15,2013-01-10 02:26:00,
2013-01-09 20:28:00,28.9,25.5,30.49,SE,130,0.0,0.0,87,0.00,,,0.00,Wunderground v.1.15,2013-01-10 02:28:00,
2013-01-09 20:30:00,29.0,25.6,30.49,SE,129,0.0,0.0,87,0.00,,,0.00,Wunderground v.1.15,2013-01-10 02:30:00,
2013-01-09 20:32:00,29.1,26.0,30.49,SE,129,0.0,0.0,88,0.00,,,0.00,Wunderground v.1.15,2013-01-10 02:32:00,
2013-01-09 20:35:00,29.1,26.0,30.49,SE,129,0.0,0.0,88,0.00,,,0.00,Wunderground v.1.15,2013-01-10 02:35:00,
2013-01-09 20:39:00,28.9,25.5,30.49,SE,129,0.0,0.0,87,0.00,,,0.00,Wunderground v.1.15,2013-01-10 02:39:00,
2013-01-09 20:40:00,28.8,25.4,30.49,SE,129,0.0,0.0,87,0.00,,,0.00,Wunderground v.1.15,2013-01-10 02:40:00,
2013-01-09 20:41:00,28.7,25.3,30.49,SE,130,0.0,0.0,87,0.00,,,0.00,Wunderground v.1.15,2013-01-10 02:41:00,
2013-01-09 20:46:00,28.3,24.9,30.48,SE,131,0.0,0.0,87,0.00,,,0.00,Wunderground v.1.15,2013-01-10 02:46:00,
2013-01-09 20:47:00,28.2,25.1,30.49,SE,131,0.0,0.0,88,0.00,,,0.00,Wunderground v.1.15,2013-01-10 02:47:00,
2013-01-09 20:49:00,28.1,25.0,30.49,SE,131,0.0,0.0,88,0.00,,,0.00,Wunderground v.1.15,2013-01-10 02:49:00,
2013-01-09 20:52:00,27.9,24.8,30.48,SE,130,0.0,0.0,88,0.00,,,0.00,Wunderground v.1.15,2013-01-10 02:52:00,
2013-01-09 20:53:00,27.9,24.8,30.48,SE,131,0.0,0.0,88,0.00,,,0.00,Wunderground v.1.15,2013-01-10 02:53:00,
2013-01-09 20:54:00,27.8,24.7,30.48,SE,131,0.0,0.0,88,0.00,,,0.00,Wunderground v.1.15,2013-01-10 02:54:00,
2013-01-09 20:56:00,27.6,24.5,30.48,SE,129,0.0,0.0,88,0.00,,,0.00,Wunderground v.1.15,2013-01-10 02:56:00,
2013-01-09 20:58:00,27.5,24.4,30.49,SE,131,0.0,0.0,88,0.00,,,0.00,Wunderground v.1.15,2013-01-10 02:58:00,
2013-01-09 21:00:00,27.4,24.3,30.48,SE,129,0.0,0.0,88,0.00,,,0.00,Wunderground v.1.15,2013-01-10 03:00:00,
2013-01-09 21:03:00,27.2,24.1,30.48,SE,129,0.0,0.0,88,0.00,,,0.00,Wunderground v.1.15,2013-01-10 03:03:00,
2013-01-09 21:04:00,27.2,24.1,30.48,SE,129,0.0,0.0,88,0.00,,,0.00,Wunderground v.1.15,2013-01-10 03:04:00,
2013-01-09 21:06:00,27.0,23.9,30.48,SE,130,0.0,0.0,88,0.00,,,0.00,Wunderground v.1.15,2013-01-10 03:06:00,
2013-01-09 21:08:00,27.0,23.9,30.48,SE,131,0.0,0.0,88,0.00,,,0.00,Wunderground v.1.15,2013-01-10 03:08:00,
2013-01-09 21:11:00,27.0,24.2,30.48,SE,129,0.0,0.0,89,0.00,,,0.00,Wunderground v.1.15,2013-01-10 03:11:00,
2013-01-09 21:12:00,27.0,24.2,30.48,SE,129,0.0,0.0,89,0.00,,,0.00,Wunderground v.1.15,2013-01-10 03:12:00,
2013-01-09 21:13:00,27.0,24.2,30.48,SE,130,0.0,0.0,89,0.00,,,0.00,Wunderground v.1.15,2013-01-10 03:13:00,
2013-01-09 21:17:00,26.9,24.1,30.48,SE,130,0.0,0.0,89,0.00,,,0.00,Wunderground v.1.15,2013-01-10 03:17:00,
2013-01-09 21:19:00,26.9,24.1,30.48,SE,130,0.0,0.0,89,0.00,,,0.00,Wunderground v.1.15,2013-01-10 03:19:00,
2013-01-09 21:20:00,26.9,24.1,30.48,SE,129,0.0,0.0,89,0.00,,,0.00,Wunderground v.1.15,2013-01-10 03:20:00,
2013-01-09 21:21:00,26.7,23.9,30.48,SE,129,0.0,0.0,89,0.00,,,0.00,Wunderground v.1.15,2013-01-10 03:21:00,
2013-01-09 21:25:00,26.7,23.9,30.48,SE,129,0.0,0.0,89,0.00,,,0.00,Wunderground v.1.15,2013-01-10 03:25:00,
2013-01-09 21:26:00,26.7,23.9,30.48,SE,129,0.0,0.0,89,0.00,,,0.00,Wunderground v.1.15,2013-01-10 03:26:00,
2013-01-09 21:28:00,26.6,23.8,30.49,SE,129,0.0,0.0,89,0.00,,,0.00,Wunderground v.1.15,2013-01-10 03:28:00,
2013-01-09 21:31:00,26.6,23.8,30.49,SE,129,0.0,0.0,89,0.00,,,0.00,Wunderground v.1.15,2013-01-10 03:31:00,
2013-01-09 21:32:00,26.6,23.8,30.49,SE,131,0.0,0.0,89,0.00,,,0.00,Wunderground v.1.15,2013-01-10 03:32:00,
2013-01-09 21:34:00,26.7,24.2,30.48,SE,129,0.0,0.0,90,0.00,,,0.00,Wunderground v.1.15,2013-01-10 03:34:00,
2013-01-09 21:37:00,26.7,24.2,30.48,SE,131,0.0,0.0,90,0.00,,,0.00,Wunderground v.1.15,2013-01-10 03:37:00,
2013-01-09 21:39:00,26.8,24.3,30.48,SE,131,0.0,0.0,90,0.00,,,0.00,Wunderground v.1.15,2013-01-10 03:39:00,
2013-01-09 21:42:00,26.8,24.3,30.48,SE,129,0.0,0.0,90,0.00,,,0.00,Wunderground v.1.15,2013-01-10 03:42:00,
2013-01-09 21:44:00,26.7,24.2,30.48,SE,129,0.0,0.0,90,0.00,,,0.00,Wunderground v.1.15,2013-01-10 03:44:00,
2013-01-09 21:46:00,26.7,24.2,30.48,SE,129,0.0,0.0,90,0.00,,,0.00,Wunderground v.1.15,2013-01-10 03:46:00,
2013-01-09 21:47:00,26.6,24.1,30.49,SE,129,0.0,0.0,90,0.00,,,0.00,Wunderground v.1.15,2013-01-10 03:47:00,
2013-01-09 21:51:00,26.4,23.9,30.49,SE,129,0.0,0.0,90,0.00,,,0.00,Wunderground v.1.15,2013-01-10 03:51:00,
2013-01-09 21:54:00,26.4,23.9,30.49,SE,131,0.0,0.0,90,0.00,,,0.00,Wunderground v.1.15,2013-01-10 03:54:00,
2013-01-09 21:56:00,26.3,23.8,30.50,SE,129,0.0,0.0,90,0.00,,,0.00,Wunderground v.1.15,2013-01-10 03:56:00,
2013-01-09 21:57:00,26.3,23.8,30.50,SE,131,0.0,0.0,90,0.00,,,0.00,Wunderground v.1.15,2013-01-10 03:57:00,
2013-01-09 21:59:00,26.3,23.8,30.50,SE,131,0.0,0.0,90,0.00,,,0.00,Wunderground v.1.15,2013-01-10 03:59:00,
2013-01-09 22:00:00,26.3,23.8,30.50,SE,131,0.0,0.0,90,0.00,,,0.00,Wunderground v.1.15,2013-01-10 04:00:00,
2013-01-09 22:03:00,26.3,24.0,30.50,SE,131,0.0,0.0,91,0.00,,,0.00,Wunderground v.1.15,2013-01-10 04:03:00,
2013-01-09 22:04:00,26.3,24.0,30.50,SE,129,0.0,0.0,91,0.00,,,0.00,Wunderground v.1.15,2013-01-10 04:04:00,
2013-01-09 22:07:00,26.3,23.8,30.49,SE,131,0.0,0.0,90,0.00,,,0.00,Wunderground v.1.15,2013-01-10 04:07:00,
2013-01-09 22:08:00,26.2,23.9,30.50,SE,129,0.0,0.0,91,0.00,,,0.00,Wunderground v.1.15,2013-01-10 04:08:00,
2013-01-09 22:09:00,26.2,23.9,30.50,SE,129,0.0,0.0,91,0.00,,,0.00,Wunderground v.1.15,2013-01-10 04:09:00,
2013-01-09 22:10:00,26.1,23.8,30.50,SE,130,0.0,0.0,91,0.00,,,0.00,Wunderground v.1.15,2013-01-10 04:10:00,
2013-01-09 22:13:00,26.0,23.7,30.50,SE,130,0.0,0.0,91,0.00,,,0.00,Wunderground v.1.15,2013-01-10 04:13:00,
2013-01-09 22:14:00,25.9,23.6,30.50,SE,129,0.0,0.0,91,0.00,,,0.00,Wunderground v.1.15,2013-01-10 04:14:00,
2013-01-09 22:18:00,25.8,23.5,30.50,SE,131,0.0,0.0,91,0.00,,,0.00,Wunderground v.1.15,2013-01-10 04:18:00,
2013-01-09 22:19:00,25.8,23.5,30.50,SE,129,0.0,0.0,91,0.00,,,0.00,Wunderground v.1.15,2013-01-10 04:19:00,
2013-01-09 22:20:00,25.8,23.5,30.50,SE,131,0.0,0.0,91,0.00,,,0.00,Wunderground v.1.15,2013-01-10 04:20:00,
2013-01-09 22:23:00,25.8,23.5,30.50,SE,130,0.0,0.0,91,0.00,,,0.00,Wunderground v.1.15,2013-01-10 04:23:00,
2013-01-09 22:24:00,25.8,23.5,30.50,SE,131,0.0,0.0,91,0.00,,,0.00,Wunderground v.1.15,2013-01-10 04:24:00,
2013-01-09 22:28:00,25.8,23.5,30.51,SE,129,0.0,0.0,91,0.00,,,0.00,Wunderground v.1.15,2013-01-10 04:28:00,
2013-01-09 22:29:00,25.8,23.8,30.51,SE,131,0.0,0.0,92,0.00,,,0.00,Wunderground v.1.15,2013-01-10 04:29:00,
2013-01-09 22:33:00,25.9,23.9,30.51,SE,129,0.0,0.0,92,0.00,,,0.00,Wunderground v.1.15,2013-01-10 04:33:00,
2013-01-09 22:35:00,26.0,24.0,30.51,SE,129,0.0,0.0,92,0.00,,,0.00,Wunderground v.1.15,2013-01-10 04:35:00,
2013-01-09 22:36:00,26.0,24.0,30.51,SE,130,0.0,0.0,92,0.00,,,0.00,Wunderground v.1.15,2013-01-10 04:36:00,
2013-01-09 22:37:00,26.1,24.1,30.51,SE,129,0.0,0.0,92,0.00,,,0.00,Wunderground v.1.15,2013-01-10 04:37:00,
2013-01-09 22:38:00,26.2,24.2,30.51,SE,129,0.0,0.0,92,0.00,,,0.00,Wunderground v.1.15,2013-01-10 04:38:00,
2013-01-09 22:42:00,26.3,24.3,30.52,SE,129,0.0,0.0,92,0.00,,,0.00,Wunderground v.1.15,2013-01-10 04:42:00,
2013-01-09 22:45:00,26.5,24.5,30.52,SE,130,0.0,0.0,92,0.00,,,0.00,Wunderground v.1.15,2013-01-10 04:45:00,
2013-01-09 22:47:00,26.6,24.8,30.51,SE,129,0.0,0.0,93,0.00,,,0.00,Wunderground v.1.15,2013-01-10 04:47:00,
2013-01-09 22:50:00,26.6,24.8,30.51,SE,130,0.0,0.0,93,0.00,,,0.00,Wunderground v.1.15,2013-01-10 04:50:00,
2013-01-09 22:52:00,26.7,24.9,30.51,SE,130,0.0,0.0,93,0.00,,,0.00,Wunderground v.1.15,2013-01-10 04:52:00,
2013-01-09 22:53:00,26.7,24.7,30.51,SE,129,0.0,0.0,92,0.00,,,0.00,Wunderground v.1.15,2013-01-10 04:53:00,
2013-01-09 22:56:00,26.6,24.6,30.51,SE,129,0.0,0.0,92,0.00,,,0.00,Wunderground v.1.15,2013-01-10 04:56:00,
2013-01-09 22:57:00,26.5,24.5,30.51,SE,130,0.0,0.0,92,0.00,,,0.00,Wunderground v.1.15,2013-01-10 04:57:00,
2013-01-09 22:58:00,26.4,24.4,30.51,SE,130,0.0,0.0,92,0.00,,,0.00,Wunderground v.1.15,2013-01-10 04:58:00,
2013-01-09 23:00:00,26.0,24.0,30.51,SE,129,0.0,0.0,92,0.00,,,0.00,Wunderground v.1.15,2013-01-10 05:00:00,
2013-01-09 23:02:00,25.8,23.5,30.52,SE,130,0.0,0.0,91,0.00,,,0.00,Wunderground v.1.15,2013-01-10 05:02:00,
2013-01-09 23:06:00,25.6,23.6,30.51,SE,129,0.0,0.0,92,0.00,,,0.00,Wunderground v.1.15,2013-01-10 05:06:00,
2013-01-09 23:07:00,25.6,23.6,30.51,SE,129,0.0,0.0,92,0.00,,,0.00,Wunderground v.1.15,2013-01-10 05:07:00,
2013-01-09 23:08:00,25.5,23.5,30.52,SE,129,0.0,0.0,92,0.00,,,0.00,Wunderground v.1.15,2013-01-10 05:08:00,
2013-01-09 23:11:00,25.3,23.0,30.51,SE,130,0.0,0.0,91,0.00,,,0.00,Wunderground v.1.15,2013-01-10 05:11:00,
2013-01-09 23:12:00,25.2,22.9,30.51,SE,129,0.0,0.0,91,0.00,,,0.00,Wunderground v.1.15,2013-01-10 05:12:00,
2013-01-09 23:13:00,25.2,22.9,30.51,SE,129,0.0,0.0,91,0.00,,,0.00,Wunderground v.1.15,2013-01-10 05:13:00,
2013-01-09 23:16:00,25.1,23.1,30.51,SE,130,0.0,0.0,92,0.00,,,0.00,Wunderground v.1.15,2013-01-10 05:16:00,
2013-01-09 23:17:00,25.0,23.0,30.51,SE,129,0.0,0.0,92,0.00,,,0.00,Wunderground v.1.15,2013-01-10 05:17:00,
2013-01-09 23:20:00,25.0,23.0,30.51,SE,129,0.0,0.0,92,0.00,,,0.00,Wunderground v.1.15,2013-01-10 05:20:00,
2013-01-09 23:21:00,24.9,22.9,30.51,SE,129,0.0,0.0,92,0.00,,,0.00,Wunderground v.1.15,2013-01-10 05:21:00,
2013-01-09 23:23:00,24.8,22.8,30.51,SE,129,0.0,0.0,92,0.00,,,0.00,Wunderground v.1.15,2013-01-10 05:23:00,
2013-01-09 23:25:00,24.8,22.8,30.51,SE,130,0.0,0.0,92,0.00,,,0.00,Wunderground v.1.15,2013-01-10 05:25:00,
2013-01-09 23:27:00,24.7,22.7,30.51,SE,129,0.0,0.0,92,0.00,,,0.00,Wunderground v.1.15,2013-01-10 05:27:00,
2013-01-09 23:30:00,24.6,22.3,30.51,SE,130,0.0,0.0,91,0.00,,,0.00,Wunderground v.1.15,2013-01-10 05:30:00,
2013-01-09 23:31:00,24.5,22.2,30.51,SE,130,0.0,0.0,91,0.00,,,0.00,Wunderground v.1.15,2013-01-10 05:31:00,
2013-01-09 23:33:00,24.4,22.2,30.51,SE,129,0.0,0.0,91,0.00,,,0.00,Wunderground v.1.15,2013-01-10 05:33:00,
2013-01-09 23:35:00,24.3,22.3,30.51,SE,129,0.0,0.0,92,0.00,,,0.00,Wunderground v.1.15,2013-01-10 05:35:00,
2013-01-09 23:37:00,24.4,22.4,30.50,SE,130,0.0,0.0,92,0.00,,,0.00,Wunderground v.1.15,2013-01-10 05:37:00,
2013-01-09 23:39:00,24.4,22.4,30.50,SE,130,0.0,0.0,92,0.00,,,0.00,Wunderground v.1.15,2013-01-10 05:39:00,
2013-01-09 23:42:00,24.3,22.3,30.50,SE,129,0.0,0.0,92,0.00,,,0.00,Wunderground v.1.15,2013-01-10 05:42:00,
2013-01-09 23:44:00,24.2,22.2,30.50,SE,130,0.0,0.0,92,0.00,,,0.00,Wunderground v.1.15,2013-01-10 05:44:00,
2013-01-09 23:46:00,24.2,22.2,30.50,SE,129,0.0,0.0,92,0.00,,,0.00,Wunderground v.1.15,2013-01-10 05:46:00,
2013-01-09 23:47:00,24.1,22.1,30.50,SE,129,0.0,0.0,92,0.00,,,0.00,Wunderground v.1.15,2013-01-10 05:47:00,
2013-01-09 23:49:00,24.1,22.1,30.50,SE,130,0.0,0.0,92,0.00,,,0.00,Wunderground v.1.15,2013-01-10 05:49:00,
2013-01-09 23:52:00,24.1,22.1,30.50,SE,129,0.0,0.0,92,0.00,,,0.00,Wunderground v.1.15,2013-01-10 05:52:00,
2013-01-09 23:54:00,24.2,22.2,30.50,SE,129,0.0,0.0,92,0.00,,,0.00,Wunderground v.1.15,2013-01-10 05:54:00,
2013-01-09 23:56:00,24.2,22.2,30.50,SE,129,0.0,0.0,92,0.00,,,0.00,Wunderground v.1.15,2013-01-10 05:56:00,
2013-01-09 23:57:00,24.2,22.2,30.50,SE,129,0.0,0.0,92,0.00,,,0.00,Wunderground v.1.15,2013-01-10 05:57:00,